Regional Weather Roundup
Issued by NWS

Home | Current Version | Previous Version | Text Only | Print | Product List | Glossary Off
Versions: 1 2 3 4 5 6 7 8 9 10 11 12 13 14 15 16 17 18 19 20 21 22 23 24 25 26 27 28 29 30 31 32 33 34 35 36 37 38 39 40 41 42 43 44 45 46 47 48 49 50

000
ASUS43 KMPX 280410
RWRMN
WEATHER ROUNDUP FOR MINNESOTA
NATIONAL WEATHER SERVICE TWIN CITIES/CHANHASSEN MN
1100 PM CDT MON MAR 27 2017


NOTE: "FAIR" INDICATES FEW OR NO CLOUDS BELOW 12,000 FEET WITH NO
SIGNIFICANT WEATHER AND/OR OBSTRUCTIONS TO VISIBILITY. N/A MEANS
CURRENT SKY AND/OR WEATHER CONDITIONS ARE NOT AVAILABLE.

MNZ060>063-068>070-280500-
   Twin Cities Metro

CITY           SKY/WX    TMP DP  RH WIND       PRES   REMARKS
TWIN CITIES    CLEAR     47  36  65 CALM      30.02R
ST PAUL        CLEAR     40  37  89 CALM      30.03R
CRYSTAL        PTCLDY    40  31  70 CALM      30.01R
BLAINE         PTCLDY    45  36  70 CALM      30.02R
LAKEVILLE      PTCLDY    34  34 100 CALM      30.02R
EDEN PRAIRIE   CLEAR     44  36  73 NW3       30.01R
SOUTH ST PAUL  PTCLDY    41  35  80 CALM      30.02R
LAKE ELMO      FAIR      36  34  93 CALM      30.02S
$$
MNZ001>005-007-008-013>017-022>024-027-028-280500-
   Northwest Minnesota

CITY           SKY/WX    TMP DP  RH WIND       PRES   REMARKS
BEMIDJI        CLEAR     34  28  81 W6        30.02R WCI  28
HALLOCK        MOCLDY    36  34  93 N7        30.08R
ROSEAU         MOCLDY    39  34  81 CALM      30.06R
WARROAD        PTCLDY    39  32  75 N7        30.06R
THIEF RVR FALL CLOUDY   N/A N/A N/A N8        30.07R
CROOKSTON      FOG       36  36 100 N7        30.08R VSB 1/2
FOSSTON        PTCLDY    34  30  86 CALM      30.05R
DETROIT LAKES  CLEAR     41  39  93 N5        30.04R
MOORHEAD       CLEAR     37  37 100 N5        30.05R FOG
PARK RAPIDS    CLEAR     38  25  59 CALM      30.01R
MAHNOMEN         N/A     36  35  99 NE7       30.03S FOG
$$
MNZ006-009>011-018-025>026-280500-
   North Central Minnesota

CITY           SKY/WX    TMP DP  RH WIND       PRES   REMARKS
BAUDETTE       CLOUDY    41  29  62 N6        30.04R
FLAG ISLAND    CLOUDY    37  30  75 CALM      30.05S
INTL FALLS     CLOUDY    44  26  49 N6        30.02R
WASKISH        PTCLDY    36  30  80 CALM      30.03R
BIG FORK       CLEAR     32  23  69 CALM      30.02R
LONGVILLE      CLEAR     30  28  93 CALM      30.02R FOG
GRAND RAPIDS   CLEAR     33  27  78 CALM      30.03R
CRANE LAKE     CLEAR     27  25  93 CALM      30.04S
ORR            CLEAR     28  21  74 CALM      30.00S
COOK           CLEAR     30  25  80 CALM      30.02S
WALKER         FAIR      37  26  66 W5        30.02R
$$
MNZ012-019>021-037-280500-
   Northeast Minnesota

CITY           SKY/WX    TMP DP  RH WIND       PRES   REMARKS
DULUTH         CLEAR     38  30  73 E3        30.02R
ELY            CLEAR     28  25  86 SE3       30.02R
HIBBING        CLEAR     27  25  92 E3        30.01R
EVELETH        CLEAR     32  27  83 CALM      30.03S
DULUTH HARBOR  CLEAR     34  30  86 CALM      30.05R
TWO HARBORS    CLEAR     32  27  80 CALM      30.02S
SILVER BAY     CLEAR     28  28 100 CALM      30.02S
GRAND MARAIS     N/A     30  28  92 CALM      30.04R
G MARAIS ARPRT CLEAR     30  27  86 CALM      30.02S
$$
MNZ029>031-032-039>041-046>048-054>057-064-280500-
   West Central Minnesota

CITY           SKY/WX    TMP DP  RH WIND       PRES   REMARKS
FERGUS FALLS   CLEAR     43  36  75 N3        30.06R
WHEATON        CLEAR     39  34  81 CALM      30.05R
MORRIS         PTCLDY    43  34  70 CALM      30.02R
ALEXANDRIA     CLOUDY    40  34  79 CALM      30.02R
ELBOW LAKE     FAIR      39  33  78 S5        30.03R
WADENA         CLEAR     36  32  87 S3        30.01R
GLENWOOD       CLOUDY    43  36  75 CALM      30.03R
APPLETON       PTCLDY    41  37  87 CALM      30.02R
BENSON         MOCLDY    41  30  65 CALM      30.04R
ORTONVILLE     PTCLDY    43  36  75 CALM      30.02R
MADISON        MOCLDY    45  37  76 CALM      30.02R
WILLMAR        FAIR      45  36  70 CALM      30.03R
$$
MNZ033>034-036-042>043-049>051-058-059-280500-
   Central Minnesota

CITY           SKY/WX    TMP DP  RH WIND       PRES   REMARKS
ST CLOUD       PTCLDY    37  34  89 CALM      30.01S
SAUK CENTRE    FAIR      35  32  88 CALM      30.03R
PAYNESVILLE      N/A     35  32  89 CALM      30.03R
AITKIN         CLEAR     32  27  80 CALM      30.01R
PINE RIVER     CLEAR     32  27  80 CALM      30.05S
BRAINERD       CLEAR     32  28  85 S3        30.02R
STAPLES        CLEAR     36  30  80 CALM      30.02R
LONG PRAIRIE   FAIR      36  34  93 CALM      30.02S
LITTLE FALLS   CLEAR     34  32  93 CALM      30.02S
LITCHFIELD     MOCLDY    45  39  81 CALM      30.02R
BUFFALO        PTCLDY    38  33  81 CALM      30.02S
MAPLE LAKE     PTCLDY    39  37  92 CALM      30.02S
HUTCHINSON     PTCLDY    39  37  90 CALM      30.03R
$$
MNZ037-044-045-052-053-280500-
   East Central Minnesota

CITY           SKY/WX    TMP DP  RH WIND       PRES   REMARKS
PRINCETON      CLEAR     36  32  87 CALM      30.03R
MORA           CLEAR     32  28  86 CALM      30.04R
CAMBRIDGE      CLEAR     37  30  75 CALM      30.01R
RUSH CITY      CLEAR     41  32  70 NE3       30.02S
MOOSE LAKE     CLEAR     36  32  87 NE3       30.01R
CLOQUET        CLEAR     32  28  86 CALM      30.02S
MCGREGOR       CLEAR     34  30  86 S3        30.03R
$$
MNZ071>073-080-081-089-090-097-098-280500-
   Southwest Minnesota

CITY           SKY/WX    TMP DP  RH WIND       PRES   REMARKS
MONTEVIDEO     PTCLDY    43  34  70 CALM      30.04R
GRANITE FALLS  PTCLDY    44  35  69 E3        30.04R
CANBY          PTCLDY    41  37  87 CALM      30.03R
MARSHALL       MOCLDY    40  36  86 W3        30.02R
REDWOOD FALLS  PTCLDY    48  33  56 NE3       30.02R
OLIVIA         PTCLDY    41  32  70 CALM      30.01S
PIPESTONE      CLOUDY    45  36  70 S3        30.01R
WINDOM         CLOUDY    37  36  93 CALM      30.01R
WORTHINGTON    CLEAR     38  35  89 SW7       30.02R
JACKSON        PTCLDY    39  36  87 CALM      30.01S
TRACY          PTCLDY    44  38  79 SW7       30.01S
SLAYTON        CLOUDY    38  35  88 SW6       30.02R
$$
MNZ065>067-074>077-082>085-091>093-280500-
   South Central Minnesota

CITY           SKY/WX    TMP DP  RH WIND       PRES   REMARKS
MANKATO        CLEAR     43  39  86 S3        30.02R
NEW ULM        CLEAR     46  34  61 CALM      30.01R
ST JAMES       CLEAR     39  37  93 CALM      30.02S
FAIRMONT       CLEAR     38  37  97 CALM      30.01S
GLENCOE        PTCLDY    41  36  84 CALM      30.01R
FARIBAULT      CLEAR     36  36 100 CALM      30.02R
OWATONNA       CLEAR     36  32  87 CALM      30.02R
WASECA         CLEAR     36  34  93 CALM      30.03S
ALBERT LEA     CLEAR     37  36  93 CALM      30.01S
$$
MNZ078>079-086>088-094>096-280500-
   Southeast Minnesota

CITY           SKY/WX    TMP DP  RH WIND       PRES   REMARKS
ROCHESTER      CLEAR     40  38  93 NE3       30.01R
RED WING       CLEAR     36  34  93 CALM      30.02R
STANTON        CLEAR     33  31  93 S3        30.01R
DODGE CENTER   CLEAR     37  36  93 CALM      30.01R FOG
WINONA         CLEAR     37  36  93 CALM      30.02S
AUSTIN         CLEAR     41  37  87 CALM      30.01R
PRESTON        PTCLDY    39  37  89 CALM      30.01S
$$
ABBREVIATIONS USED IN REMARKS
   TC - TEMPERATURES IN CELSIUS
  WCI - WIND CHILL INDEX
   HX - HEAT INDEX
  VSB - VISIBILITY
$$



USA.gov is the U.S. government's official web portal to all federal, state and local government web resources and services.